www.pogodaiklimat.ru

Погода и климат >> Архив погоды >> Россия >> Якутия >> Иэма


ПОГОДА в Иэме

  • Прогноз погоды в Иэме
  • Монитор погоды в Иэме
  • Климат города

АРХИВ ПОГОДЫ в Иэме

Время (UTC), дата Ветер
(напр.,м/с)
 
Видим.   Явления Облачность Т
(С)
Тd
(С)
f
(%)
Тe
(С)
Тes
(С)
Комфортность P
(гПа)
Po
(гПа)
Тmin
(С)
Tmax
(С)
R
(мм)
R24
(мм)
S
(см)
00 21.05 СЗ 5 50 км 10/0
[Ac As]
-5.1 -9.6 71 -12 -11 1009.7 927.1
03 21.05 СЗ 4 50 км 10/0
[Ac As]
-4.4 -7.5 79 -11 -8 1009.5 927.2
06 21.05 СЗ 5 50 км 10/0
[Ac As]
-3.6 -8.4 69 -10 -9 1009.9 927.7
09 21.05 СЗ 7 50 км 10/0
[Ac As]
-4.1 -9.1 68 -12 -12 1010.6 928.2 -3.6
12 21.05 СЗ 5 50 км 10/0
[Ac As]
-5.5 -9.7 72 -13 -13 1012.2 929.3
15 21.05 СЗ 3 50 км 10/0
[Ac As]
-6.4 -8.8 83 -12 -12 1012.5 929.4
18 21.05 СЗ 3 50 км 10/0
[Ac As]
-6.6 -9.0 83 -12 -12 1012.7 929.5
21 21.05 штиль 0 50 км 10/0
[Ac As]
-5.1 -7.2 85 -6 -5 1012.7 929.9 -6.6
00 22.05 ЮЗ 1 50 км 10/0
[Ac trans Cs]
-4.0 -7.4 77 -6 -2 1012.5 930.0
03 22.05 ЮЗ 2 50 км 9/0
[Cs]
-1.5 -5.9 72 -5 +4 1011.4 929.8
06 22.05 ЮЗ 2 50 км 3/0
[Ac trans]
+0.4 -5.1 67 -3 +4 1010.5 929.5
09 22.05 Ю 1 50 км 1/0
[Ci fib]
+0.9 -5.9 60 -0 +2 1010.6 929.6 +1.0
12 22.05 штиль 0 50 км 1/0
[Ci fib]
-0.9 -6.7 65 -2 -2 1011.5 930.0
15 22.05 СВ 1 50 км ясно -5.0 -7.1 85 -7 -7 1012.9 930.1
18 22.05 штиль 0 50 км ясно -8.1 -9.1 92 -9 -9 1014.6 930.7
21 22.05 штиль 0 50 км ясно -4.1 -5.0 93 -5 -2 1013.7 931.1 -9.4
00 23.05 штиль 0 50 км ясно 0.0 -3.9 75 -1 +10 1011.3 930.1
03 23.05 ЮВ 2 50 км 1/0
[Ci fib]
+5.9 -3.1 52 +4 +15 опасность
простуды
1009.2 929.8
06 23.05 ЮВ 3 50 км 1/0
[Ci fib]
+7.8 -1.4 52 +6 +12 1007.6 928.9
09 23.05 ЮВ 2 50 км 3/0
[Ci fib]
+8.4 -0.9 52 +7 +9 1007.3 928.8 +8.4
12 23.05 В 2 50 км 4/0
[Ac trans]
+4.4 -3.0 59 +2 +2 1008.7 929.0
15 23.05 штиль 0 50 км 3/0
[Ac trans]
-1.0 -5.3 73 -2 -2 1010.1 928.7
18 23.05 ЮВ 1 50 км 8/0
[Ac trans]
-0.5 -4.3 75 -2 -2 1009.9 928.6
21 23.05 ЮВ 1 50 км 6/0
[Ac trans]
+0.4 -2.3 82 -1 +1 1008.6 927.7 -1.8
00 24.05 ЮВ 4 50 км 3/0
[Ac trans]
+8.7 -0.4 53 +6 +11 1004.8 926.5
03 24.05 ЮВ 7 50 км 9/0
[Cs]
+9.8 +0.8 53 +6 +9 1002.6 924.8
06 24.05 Ю 5 50 км 8/0
[Cs]
+12.0 +0.5 45 +10 +14 999.2 922.3
09 24.05 Ю 5-10
{11}
50 км 8/0
[Cs]
+12.6 +1.0 45 +11 +12 996.2 919.6 +12.6
12 24.05 ЮВ 5-10
{11}
50 км 10/0
[Ac trans Cs]
+9.0 +0.3 54 +6 +6 994.2 916.9
15 24.05 Ю 8-13
{14}
50 км позёмок {метель} 10/0
[Ac trans Cs]
+9.5 +1.0 55 +6 +6 992.3 915.3
18 24.05 Ю 4 50 км {метель} 10/0
[Ac As]
+6.6 -1.9 55 +3 +3 991.4 913.6
21 24.05 Ю 6 50 км 6/0
[Ac trans]
+4.5 +3.3 92 -1 -0 991.6 913.3 +4.3
00 25.05 Ю 5 50 км 8/0
[Ac trans]
+6.8 +3.2 78 +3 +5 990.8 913.2
03 25.05 Ю 6 50 км 10/0
[Ac As]
+5.6 +3.2 85 +1 +2 990.6 912.7
06 25.05 С 1 20 км слабый дождь 9/0
[As op]
+4.4 +2.7 89 +3 +6 991.4 913.1
09 25.05 штиль 0 50 км {дождь} 9/0
[Ac trans]
+4.3 +2.8 90 +3 +5 993.2 914.4 +6.5 0.5
12 25.05 СЗ 1 50 км {дождь} 10/0
[Ac As]
+3.0 +1.7 91 +1 +1 995.2 916.2
15 25.05 ЮЗ 2 50 км 10/0
[Ac As]
+1.5 -1.3 82 -2 -2 996.7 917.8
18 25.05 ЮВ 1 50 км 10/0
[Ac As]
0.0 -0.9 94 -2 -2 998.6 918.5
21 25.05 ЮЗ 2 50 км 10/0
[Ac As]
+1.1 -0.3 90 -2 -2 999.4 919.5 0.0
00 26.05 З 3 50 км 10/0
[Ac As]
+3.0 +0.3 82 -1 +1 999.7 920.4
03 26.05 З 3 50 км 10/0
[Ac As]
+1.6 +0.3 91 -3 0 1001.7 921.8
06 26.05 З 3 50 км 10/0
[Ac As]
+4.5 +0.9 77 +1 +3 1001.4 922.4
09 26.05 С 1 50 км 9/0
[Ac As]
+4.4 +0.2 74 +3 +4 1002.3 923.1 +4.5
12 26.05 В 2 50 км 8/0
[Ac As]
+3.8 +0.1 77 +1 +1 1002.7 923.4
15 26.05 штиль 0 50 км 6/0
[Ac trans]
+1.0 -1.0 86 -0 -0 1003.0 922.9
18 26.05 штиль 0 50 км 3/0
[Ac trans]
+1.4 -1.1 83 0 0 1001.5 921.5
21 26.05 ЮВ 2 50 км 9/0
[Ac trans]
+3.6 -0.4 75 +1 +2 992.8 920.6 +0.8
00 27.05 В 3 4000 м дождь со снегом 10/0
[As op]
+0.5 +0.5 100 -4 -3 1000.7 920.5 +0.5
03 27.05 ЮВ 7-10
{11}
50 км {снег} 9/0
[Ac trans]
+4.5 +1.5 81 -1 0 997.9 919.1
06 27.05 Ю 3 50 км {снег} 10/0
[Ac As]
+5.8 +2.9 82 +3 +5 997.6 919.2
09 27.05 штиль 0 50 км 9/0
[Ac trans]
+6.4 +4.3 86 +5 +7 1002.5 919.7 +6.4 0.4
12 27.05 З 2 50 км 9/0
[Ac trans]
+3.3 +1.5 88 0 0 1001.8 922.4
15 27.05 ЮЗ 2 50 км 10/0
[Ac As]
+1.7 +1.2 96 -2 -2 1003.6 923.6
18 27.05 ЮЗ 1 50 км 10/0
[Ac As]
+1.1 +0.6 96 -1 -1 1005.4 925.0

 

Местоположение метеостанции Иэма (Якутия, Россия): широта 65.30 долгота 135.80 высота над уровнем моря 675 м.

В архиве по умолчанию представлена погода в Иэме за последнюю неделю. Архивные данные за месяц целиком и за предыдущие месяцы, начиная с января 2011 года, Вы можете получить, выбрав интересующий диапазон дат из раскрывающегося списка и нажав кнопку "Ввод!".

Внимание! Время в таблицах - всемирное. Для получения местного времени необходимо прибавить поправку, которая в Иэме равна 9 ч.

Смотрите также архив погоды в соседних городах и на ближайших метеорологических станциях:

Погода в Томпо (Якутия, Россия) (150 км)
Погода в Усть-Чарках (Якутия, Россия) (171 км)
Погода в Екюччю (Якутия, Россия) (250 км)
Погода в Батагае (Якутия, Россия) (267 км)
Погода в Себян-Кюеле (Якутия, Россия) (269 км)
Погода в Верхоянске (Якутия, Россия) (274 км)
Погода в Крест-Хальджае (Якутия, Россия) (284 км)
Погода в Теплом Ключе (Якутия, Россия) (284 км)
Погода в Верхоянском Перевозе (Якутия, Россия) (286 км)
Погода в Восточной (Якутия, Россия) (294 км)

Пояснения к столбцам:

Ветер - указаны скорость ветра в м/с - средняя за 10 мин, порывы в срок и между сроками (в фигурных скобках) и направление, откуда дует ветер: С - северный, СВ - северо-восточный, В - восточный, ЮВ - юго-восточный, Ю - южный, ЮЗ - юго-западный, З - западный, СЗ - северо-западный.
Видимость - горизонтальная дальность видимости в метрах или километрах. При видимости от 1 до 10 км при отсутствии осадков обычно наблюдается дымка, при ухудшении видимости до 1 км и менее - туман. В сухую погоду видимость может ухудшаться дымом, пылью или мглою.
Явления - указаны атмосферные явления, наблюдавшиеся в срок или в последний час перед сроком; фигурными скобками обозначены явления, наблюдавшиеся между сроками (за 1-3 часа до срока); квадратными скобками обозначены град или гололедные отложения с указанием их диаметра в мм.
Облачность - указаны через наклонную черту общая и нижняя облачность в баллах и высота нижней границы облаков в метрах; квадратными скобками обозначены формы облаков: Ci - перистые, Cs - перисто-слоистые, Cc - перисто-кучевые, Ac - высококучевые, As - высокослоистые, Sc - слоисто-кучевые, Ns - слоисто-дождевые, Cu - кучевые, Cb - кучево-дождевые. Подробнее классификацию облаков см. в Атласе облаков (PDF).
T - Температура воздуха - температура, измеренная на высоте 2 м над землей.
Td - Температура точки росы - температура, при понижении до которой содержащийся в воздухе водяной пар достигнет насыщения.
f - Относительная влажность воздуха - влажноcть воздуха, измеренная на высоте 2 м над землей.
Te - Эффективная температура - температура, которую ощущает одетый по сезону человек в тени. Характеристика душности погоды. При расчете учитывается влияние влажности воздуха и скорости ветра на теплоощущения человека.
Tes - Эффективная температура на солнце - температура, которую ощущает человек, с поправкой на солнечный нагрев. Характеристика знойности погоды. Зависит от высоты солнца над горизонтом, облачности и скорости ветра. Ночью, в пасмурную погоду, а также при ветре 12 м/с и более поправка равна нулю.
P - Атмосферное давление - приведенное к уровню моря атмосферное давление.
Po - Атмосферное давление - измеренное на уровне метеостанции атмосферное давление.
Tmin - Минимальная температура - минимум температуры воздуха на высоте 2 м над землей.
Tmax - Максимальная температура - максимум температуры воздуха на высоте 2 м над землей.
R - Количество осадков - Количество выпавших осадков за период времени, мм. При наведении курсора мыши на число - период времени, за который выпало указанное количество осадков.
R24 - Количество осадков - Количество выпавших осадков за 24 часа, мм.
S - Снежный покров - Высота снежного покрова, см. При наведении курсора мыши на число - состояние снежного покрова и степень покрытия местности в баллах.